AIC278 VCBI-VIDP

Flight info

Callsign AIC278
Flight time 3h 6m
Altitude 35000
Route KAT A465 MMV Q24 BAVOX BAVOX7A
Aircraft A321/M-SDE3FGHIRWY/LB1

Departure

Time 2026-04-25 14:07
Airport Bandaranaike International Colombo Airport (VCBI)

Arrival

Time 2026-04-25 17:14
Airport Indira Gandhi International Airport (VIDP)
Time Latitude Longitude Altitude Speed Heading
2026-04-25 12:58 7.17654 79.88365 28 ft 0 kts 37°
2026-04-25 13:48 7.17650 79.88362 0 ft 2 kts 37°
2026-04-25 13:48 7.17634 79.88350 27 ft 3 kts 37°
2026-04-25 13:49 7.17618 79.88338 27 ft 3 kts 37°
2026-04-25 13:49 7.17605 79.88327 27 ft 3 kts 32°
2026-04-25 13:49 7.17590 79.88320 27 ft 3 kts 352°
2026-04-25 13:49 7.17573 79.88327 27 ft 3 kts 315°
2026-04-25 13:50 7.17563 79.88338 27 ft 1 kts 307°
2026-04-25 13:50 7.17560 79.88342 27 ft 0 kts 307°
2026-04-25 13:55 7.17563 79.88338 27 ft 3 kts 307°
2026-04-25 13:55 7.17594 79.88297 27 ft 10 kts 307°
2026-04-25 13:56 7.17643 79.88258 28 ft 8 kts 351°
2026-04-25 13:56 7.17690 79.88277 28 ft 7 kts 34°
2026-04-25 13:56 7.17724 79.88302 28 ft 5 kts 36°
2026-04-25 13:56 7.17751 79.88322 28 ft 4 kts 36°
2026-04-25 13:57 7.17773 79.88339 28 ft 3 kts 36°
2026-04-25 13:57 7.17787 79.88349 28 ft 4 kts 37°
2026-04-25 13:57 7.17843 79.88391 28 ft 11 kts 37°
2026-04-25 13:57 7.17920 79.88450 28 ft 15 kts 38°
2026-04-25 13:58 7.17999 79.88512 27 ft 14 kts 37°
2026-04-25 13:58 7.18073 79.88569 27 ft 13 kts 37°
2026-04-25 13:58 7.18140 79.88621 27 ft 11 kts 37°
2026-04-25 13:58 7.18200 79.88666 27 ft 10 kts 37°
2026-04-25 13:59 7.18251 79.88704 27 ft 8 kts 37°
2026-04-25 13:59 7.18294 79.88737 27 ft 7 kts 37°
2026-04-25 13:59 7.18329 79.88763 27 ft 6 kts 37°
2026-04-25 13:59 7.18358 79.88785 27 ft 5 kts 37°
2026-04-25 14:00 7.18366 79.88791 27 ft 4 kts 37°
2026-04-25 14:00 7.18397 79.88814 27 ft 3 kts 37°
2026-04-25 14:00 7.18424 79.88834 28 ft 7 kts 37°
2026-04-25 14:00 7.18479 79.88876 28 ft 13 kts 37°
2026-04-25 14:01 7.18557 79.88935 28 ft 10 kts 37°
2026-04-25 14:01 7.18614 79.88943 28 ft 8 kts 330°
2026-04-25 14:01 7.18641 79.88910 28 ft 0 kts 304°
2026-04-25 14:04 7.18653 79.88892 29 ft 5 kts 305°
2026-04-25 14:04 7.18670 79.88868 29 ft 3 kts 305°
2026-04-25 14:05 7.18681 79.88853 29 ft 2 kts 305°
2026-04-25 14:05 7.18686 79.88845 29 ft 1 kts 305°
2026-04-25 14:05 7.18693 79.88831 29 ft 1 kts 281°
2026-04-25 14:05 7.18689 79.88822 29 ft 1 kts 249°
2026-04-25 14:06 7.18685 79.88815 29 ft 2 kts 240°
2026-04-25 14:06 7.18665 79.88796 29 ft 5 kts 214°
2026-04-25 14:06 7.18662 79.88794 29 ft 0 kts 214°
2026-04-25 14:06 7.18578 79.88734 29 ft 44 kts 216°
2026-04-25 14:07 7.18151 79.88400 28 ft 108 kts 218°
2026-04-25 14:07 7.17419 79.87833 30 ft 156 kts 218°
2026-04-25 14:07 7.16489 79.87094 263 ft 176 kts 218°
2026-04-25 14:07 7.15600 79.86348 1073 ft 155 kts 226°
2026-04-25 14:08 7.15113 79.85431 1773 ft 153 kts 263°
2026-04-25 14:08 7.15491 79.84443 2138 ft 168 kts 320°
2026-04-25 14:08 7.16655 79.84124 2333 ft 190 kts 11°
2026-04-25 14:08 7.17864 79.84778 2496 ft 208 kts 43°
2026-04-25 14:09 7.18912 79.85876 2623 ft 228 kts 49°
2026-04-25 14:09 7.20137 79.87012 2725 ft 253 kts 34°
2026-04-25 14:09 7.21868 79.87550 3008 ft 272 kts
2026-04-25 14:09 7.22509 79.87608 3181 ft 275 kts
2026-04-25 14:10 7.25050 79.87779 4118 ft 276 kts
2026-04-25 14:10 7.27581 79.87931 5143 ft 274 kts
2026-04-25 14:10 7.29490 79.88060 5851 ft 275 kts
2026-04-25 14:10 7.31399 79.88204 6517 ft 276 kts
2026-04-25 14:11 7.33322 79.88363 7125 ft 279 kts
2026-04-25 14:11 7.35268 79.88531 7724 ft 282 kts
2026-04-25 14:11 7.37236 79.88701 8291 ft 286 kts
2026-04-25 14:11 7.39231 79.88876 8872 ft 290 kts
2026-04-25 14:12 7.41249 79.89052 9440 ft 293 kts
2026-04-25 14:12 7.43267 79.89228 9975 ft 296 kts
2026-04-25 14:12 7.45359 79.89410 10241 ft 311 kts
2026-04-25 14:12 7.47577 79.89607 10366 ft 329 kts
2026-04-25 14:13 7.49916 79.89815 10484 ft 346 kts
2026-04-25 14:13 7.52350 79.90029 10780 ft 355 kts
2026-04-25 14:13 7.54820 79.90242 11239 ft 358 kts
2026-04-25 14:13 7.57315 79.90455 11726 ft 361 kts
2026-04-25 14:14 7.59829 79.90670 12217 ft 364 kts
2026-04-25 14:14 7.62360 79.90888 12698 ft 366 kts
2026-04-25 14:14 7.64876 79.91108 13174 ft 369 kts
2026-04-25 14:14 7.67443 79.91334 13642 ft 372 kts
2026-04-25 14:15 7.70030 79.91561 14052 ft 375 kts
2026-04-25 14:15 7.70909 79.91637 14190 ft 375 kts
2026-04-25 14:15 7.75260 79.92016 14838 ft 380 kts
2026-04-25 14:15 7.77903 79.92249 15242 ft 383 kts
2026-04-25 14:16 7.80562 79.92481 15638 ft 385 kts
2026-04-25 14:16 7.83241 79.92713 16017 ft 388 kts
2026-04-25 14:16 7.85938 79.92948 16391 ft 390 kts
2026-04-25 14:16 7.88618 79.93183 16755 ft 393 kts
2026-04-25 14:17 7.91346 79.93421 17133 ft 395 kts
2026-04-25 14:17 7.94097 79.93662 17496 ft 398 kts
2026-04-25 14:17 7.96863 79.93906 17859 ft 400 kts
2026-04-25 14:17 7.99644 79.94149 18204 ft 402 kts
2026-04-25 14:18 8.02438 79.94385 18500 ft 404 kts
2026-04-25 14:18 8.05252 79.94595 18791 ft 406 kts
2026-04-25 14:18 8.08081 79.94788 19074 ft 408 kts
2026-04-25 14:18 8.10881 79.94970 19347 ft 410 kts
2026-04-25 14:19 8.13735 79.95155 19617 ft 412 kts
2026-04-25 14:19 8.16597 79.95345 19866 ft 413 kts
2026-04-25 14:19 8.19473 79.95541 20123 ft 415 kts
2026-04-25 14:19 8.22359 79.95739 20383 ft 417 kts
2026-04-25 14:20 8.25258 79.95941 20633 ft 418 kts
2026-04-25 14:20 8.26240 79.96009 20715 ft 419 kts
2026-04-25 14:20 8.31093 79.96345 21121 ft 422 kts
2026-04-25 14:20 8.34026 79.96547 21372 ft 424 kts
2026-04-25 14:21 8.36929 79.96749 21625 ft 425 kts
2026-04-25 14:21 8.39893 79.96958 21881 ft 427 kts
2026-04-25 14:21 8.42864 79.97169 22134 ft 429 kts
2026-04-25 14:21 8.45846 79.97378 22385 ft 431 kts
2026-04-25 14:22 8.48841 79.97585 22636 ft 432 kts
2026-04-25 14:22 8.51850 79.97792 22892 ft 434 kts
2026-04-25 14:22 8.54873 79.98001 23145 ft 436 kts
2026-04-25 14:22 8.57906 79.98213 23392 ft 438 kts
2026-04-25 14:23 8.60898 79.98422 23599 ft 440 kts
2026-04-25 14:23 8.63968 79.98636 23806 ft 441 kts
2026-04-25 14:23 8.67039 79.98851 24025 ft 443 kts
2026-04-25 14:23 8.70124 79.99066 24238 ft 445 kts
2026-04-25 14:24 8.73217 79.99280 24439 ft 447 kts
2026-04-25 14:24 8.76325 79.99498 24657 ft 448 kts
2026-04-25 14:24 8.79441 79.99716 24872 ft 450 kts
2026-04-25 14:24 8.82530 79.99930 25076 ft 452 kts
2026-04-25 14:25 8.84650 80.00078 25213 ft 453 kts
2026-04-25 14:25 8.88825 80.00370 25488 ft 455 kts
2026-04-25 14:25 8.91984 80.00591 25686 ft 457 kts
2026-04-25 14:25 8.93058 80.00667 25748 ft 457 kts
2026-04-25 14:26 8.98353 80.01040 26075 ft 460 kts
2026-04-25 14:26 9.01552 80.01264 26274 ft 462 kts
2026-04-25 14:26 9.04764 80.01490 26474 ft 463 kts
2026-04-25 14:26 9.07986 80.01713 26669 ft 465 kts
2026-04-25 14:27 9.11221 80.01935 26865 ft 467 kts
2026-04-25 14:27 9.14423 80.02158 27044 ft 468 kts
2026-04-25 14:27 9.17679 80.02390 27240 ft 470 kts
2026-04-25 14:27 9.20946 80.02622 27430 ft 472 kts
2026-04-25 14:28 9.24228 80.02850 27619 ft 473 kts
2026-04-25 14:28 9.27519 80.03077 27813 ft 475 kts
2026-04-25 14:28 9.30820 80.03307 28001 ft 477 kts
2026-04-25 14:28 9.34134 80.03539 28187 ft 478 kts
2026-04-25 14:29 9.37459 80.03769 28370 ft 480 kts
2026-04-25 14:29 9.40751 80.04000 28551 ft 481 kts
2026-04-25 14:29 9.44097 80.04237 28726 ft 483 kts
2026-04-25 14:29 9.47459 80.04478 28896 ft 485 kts
2026-04-25 14:30 9.50825 80.04718 29063 ft 486 kts
2026-04-25 14:30 9.57597 80.05192 29369 ft 489 kts
2026-04-25 14:30 9.60994 80.05426 29514 ft 490 kts
2026-04-25 14:31 9.64400 80.05661 29655 ft 491 kts
2026-04-25 14:31 9.67819 80.05898 29790 ft 493 kts
2026-04-25 14:31 9.71240 80.06136 29920 ft 494 kts
2026-04-25 14:31 9.74623 80.06374 30041 ft 494 kts
2026-04-25 14:32 9.78050 80.06615 30198 ft 494 kts
2026-04-25 14:32 9.81479 80.06855 30361 ft 493 kts
2026-04-25 14:32 9.84902 80.07097 30524 ft 493 kts
2026-04-25 14:32 9.88320 80.07341 30690 ft 493 kts
2026-04-25 14:33 9.91741 80.07587 30857 ft 492 kts
2026-04-25 14:33 9.95156 80.07830 31020 ft 492 kts
2026-04-25 14:33 9.98568 80.08068 31179 ft 492 kts
2026-04-25 14:33 10.01936 80.08274 31345 ft 491 kts
2026-04-25 14:34 10.05353 80.08394 31514 ft 491 kts
2026-04-25 14:34 10.08769 80.08439 31678 ft 491 kts
2026-04-25 14:34 10.12181 80.08445 31844 ft 490 kts 360°
2026-04-25 14:34 10.15594 80.08447 32009 ft 490 kts 360°
2026-04-25 14:35 10.19000 80.08463 32176 ft 490 kts
2026-04-25 14:35 10.22411 80.08497 32338 ft 490 kts
2026-04-25 14:35 10.25815 80.08550 32505 ft 490 kts
2026-04-25 14:35 10.29177 80.08613 32670 ft 489 kts
2026-04-25 14:36 10.32578 80.08676 32833 ft 489 kts
2026-04-25 14:36 10.35982 80.08736 32996 ft 489 kts
2026-04-25 14:36 10.39378 80.08793 33161 ft 488 kts
2026-04-25 14:36 10.42778 80.08850 33331 ft 488 kts
2026-04-25 14:37 10.46175 80.08908 33491 ft 488 kts
2026-04-25 14:37 10.49567 80.08964 33657 ft 488 kts
2026-04-25 14:37 10.52961 80.09016 33822 ft 487 kts
2026-04-25 14:37 10.56350 80.09068 33961 ft 487 kts
2026-04-25 14:38 10.59692 80.09121 34114 ft 487 kts
2026-04-25 14:38 10.63078 80.09174 34260 ft 486 kts
2026-04-25 14:38 10.66457 80.09229 34414 ft 486 kts
2026-04-25 14:38 10.69838 80.09285 34567 ft 485 kts
2026-04-25 14:39 10.73215 80.09340 34715 ft 485 kts
2026-04-25 14:39 10.76585 80.09401 34849 ft 485 kts
2026-04-25 14:39 10.83276 80.09535 34883 ft 479 kts
2026-04-25 14:40 10.89934 80.09673 34885 ft 478 kts
2026-04-25 14:40 10.96538 80.09794 34884 ft 478 kts
2026-04-25 14:41 11.03186 80.09922 34886 ft 478 kts
2026-04-25 14:41 11.09839 80.10045 34889 ft 478 kts
2026-04-25 14:42 11.14243 80.10128 34893 ft 478 kts
2026-04-25 14:42 11.23112 80.10301 34898 ft 479 kts
2026-04-25 14:43 11.29774 80.10435 34900 ft 479 kts
2026-04-25 14:43 11.36438 80.10565 34901 ft 479 kts
2026-04-25 14:44 11.43099 80.10695 34902 ft 479 kts
2026-04-25 14:44 11.49712 80.10823 34897 ft 478 kts
2026-04-25 14:45 11.56372 80.10949 34898 ft 479 kts 360°
2026-04-25 14:45 11.63033 80.11076 34897 ft 479 kts 360°
2026-04-25 14:46 11.69690 80.11203 34896 ft 479 kts
2026-04-25 14:46 11.76347 80.11328 34895 ft 478 kts 360°
2026-04-25 14:47 11.80755 80.11413 34897 ft 478 kts
2026-04-25 14:47 11.89619 80.11607 34895 ft 478 kts
2026-04-25 14:48 11.96273 80.11842 34895 ft 478 kts
2026-04-25 14:48 12.02921 80.12104 34893 ft 478 kts
2026-04-25 14:49 12.09523 80.12353 34892 ft 478 kts
2026-04-25 14:49 12.16174 80.12587 34889 ft 478 kts
2026-04-25 14:50 12.22824 80.12813 34889 ft 478 kts
2026-04-25 14:50 12.29479 80.13045 34888 ft 478 kts
2026-04-25 14:51 12.36129 80.13289 34886 ft 478 kts
2026-04-25 14:51 12.42737 80.13526 34888 ft 478 kts
2026-04-25 14:52 12.49383 80.13760 34887 ft 478 kts
2026-04-25 14:52 12.53834 80.13917 34886 ft 478 kts
2026-04-25 14:53 12.62688 80.14223 34883 ft 478 kts
2026-04-25 14:53 12.69288 80.14456 34878 ft 478 kts
2026-04-25 14:54 12.75937 80.14691 34875 ft 478 kts
2026-04-25 14:54 12.82586 80.14926 34871 ft 478 kts
2026-04-25 14:55 12.89236 80.15169 34873 ft 478 kts
2026-04-25 14:55 12.95837 80.15373 34869 ft 477 kts 356°
2026-04-25 14:56 13.02306 80.14219 34869 ft 471 kts 338°
2026-04-25 14:56 13.08466 80.11954 34865 ft 470 kts 338°
2026-04-25 14:57 13.14632 80.09684 34865 ft 471 kts 338°
2026-04-25 14:57 13.20759 80.07439 34864 ft 471 kts 338°
2026-04-25 14:58 13.26925 80.05179 34861 ft 471 kts 338°
2026-04-25 14:58 13.33093 80.02914 34861 ft 471 kts 338°
2026-04-25 14:59 13.39259 80.00643 34858 ft 471 kts 337°
2026-04-25 14:59 13.45381 79.98387 34858 ft 471 kts 337°
2026-04-25 15:00 13.51543 79.96114 34854 ft 470 kts 337°
2026-04-25 15:00 13.57703 79.93846 34854 ft 470 kts 337°
2026-04-25 15:01 13.63868 79.91577 34850 ft 470 kts 337°
2026-04-25 15:01 13.70029 79.89305 34847 ft 471 kts 337°
2026-04-25 15:02 13.76155 79.87047 34845 ft 471 kts 337°
2026-04-25 15:02 13.82318 79.84768 34844 ft 471 kts 337°
2026-04-25 15:03 13.88476 79.82489 34846 ft 471 kts 337°
2026-04-25 15:03 13.94646 79.80211 34842 ft 471 kts 337°
2026-04-25 15:04 14.00771 79.77947 34843 ft 471 kts 337°
2026-04-25 15:04 14.06937 79.75667 34840 ft 471 kts 337°
2026-04-25 15:05 14.13112 79.73382 34840 ft 471 kts 337°
2026-04-25 15:06 14.21325 79.70337 34848 ft 471 kts 337°
2026-04-25 15:06 14.28503 79.67682 34854 ft 472 kts 337°
2026-04-25 15:07 14.33679 79.65758 34853 ft 472 kts 337°
2026-04-25 15:07 14.39811 79.63478 34859 ft 472 kts 337°
2026-04-25 15:08 14.45991 79.61187 34862 ft 472 kts 337°
2026-04-25 15:08 14.52172 79.58890 34863 ft 472 kts 337°
2026-04-25 15:09 14.58350 79.56594 34868 ft 472 kts 337°
2026-04-25 15:09 14.67576 79.53162 34869 ft 472 kts 337°
2026-04-25 15:10 14.73751 79.50867 34870 ft 472 kts 337°
2026-04-25 15:11 14.83012 79.47412 34876 ft 472 kts 337°
2026-04-25 15:11 14.89184 79.45113 34881 ft 471 kts 337°
2026-04-25 15:12 14.98435 79.41770 34883 ft 474 kts 343°
2026-04-25 15:12 15.03770 79.40477 34886 ft 474 kts 343°
2026-04-25 15:13 15.14498 79.37904 34891 ft 474 kts 343°
2026-04-25 15:14 15.20876 79.36351 34894 ft 474 kts 343°
2026-04-25 15:14 15.27299 79.34791 34896 ft 474 kts 343°
2026-04-25 15:15 15.33718 79.33234 34901 ft 474 kts 343°
2026-04-25 15:15 15.40143 79.31680 34902 ft 474 kts 343°
2026-04-25 15:16 15.46519 79.30134 34903 ft 474 kts 343°
2026-04-25 15:16 15.56142 79.27805 34903 ft 473 kts 343°
2026-04-25 15:17 15.65761 79.25465 34908 ft 473 kts 343°
2026-04-25 15:18 15.72122 79.23910 34909 ft 473 kts 343°
2026-04-25 15:18 15.81725 79.21573 34911 ft 473 kts 343°
2026-04-25 15:19 15.87044 79.20279 34914 ft 472 kts 343°
2026-04-25 15:19 15.94526 79.18455 34920 ft 472 kts 343°
2026-04-25 15:20 16.00922 79.16892 34923 ft 472 kts 343°
2026-04-25 15:20 16.07279 79.15353 34927 ft 472 kts 343°
2026-04-25 15:21 16.13683 79.13813 34934 ft 472 kts 343°
2026-04-25 15:21 16.20083 79.12277 34937 ft 472 kts 343°
2026-04-25 15:22 16.26479 79.10734 34934 ft 472 kts 342°
2026-04-25 15:22 16.32834 79.09192 34937 ft 472 kts 342°
2026-04-25 15:23 16.39226 79.07645 34933 ft 471 kts 342°
2026-04-25 15:23 16.45609 79.06099 34933 ft 471 kts 342°
2026-04-25 15:24 16.51994 79.04561 34933 ft 471 kts 342°
2026-04-25 15:24 16.57296 79.03277 34936 ft 471 kts 342°
2026-04-25 15:25 16.64711 79.01475 34931 ft 471 kts 342°
2026-04-25 15:25 16.71086 78.99927 34933 ft 470 kts 342°
2026-04-25 15:26 16.77458 78.98372 34935 ft 470 kts 342°
2026-04-25 15:26 16.83779 78.96828 34936 ft 470 kts 342°
2026-04-25 15:27 16.90142 78.95286 34937 ft 469 kts 342°
2026-04-25 15:28 16.99683 78.92964 34940 ft 469 kts 342°
2026-04-25 15:28 17.06037 78.91415 34943 ft 469 kts 342°
2026-04-25 15:29 17.12340 78.89871 34948 ft 468 kts 342°
2026-04-25 15:29 17.18689 78.88326 34947 ft 468 kts 342°
2026-04-25 15:30 17.25032 78.86781 34946 ft 468 kts 342°
2026-04-25 15:30 17.31378 78.85224 34948 ft 468 kts 342°
2026-04-25 15:31 17.37680 78.83681 34949 ft 468 kts 342°
2026-04-25 15:31 17.44027 78.82130 34959 ft 468 kts 342°
2026-04-25 15:32 17.50374 78.80583 34962 ft 468 kts 342°
2026-04-25 15:32 17.56725 78.79047 34965 ft 468 kts 342°
2026-04-25 15:33 17.66195 78.76757 34963 ft 467 kts 342°
2026-04-25 15:33 17.72533 78.75222 34962 ft 467 kts 342°
2026-04-25 15:34 17.78853 78.73680 34962 ft 466 kts 342°
2026-04-25 15:34 17.84102 78.72401 34960 ft 466 kts 342°
2026-04-25 15:35 17.94583 78.69854 34944 ft 465 kts 342°
2026-04-25 15:36 18.04027 78.67542 34933 ft 465 kts 342°
2026-04-25 15:36 18.10327 78.66005 34909 ft 465 kts 342°
2026-04-25 15:37 18.16630 78.64461 34901 ft 465 kts 341°
2026-04-25 15:37 18.22893 78.62909 34893 ft 466 kts 341°
2026-04-25 15:38 18.29205 78.61341 34885 ft 467 kts 342°
2026-04-25 15:38 18.35535 78.59778 34880 ft 468 kts 342°
2026-04-25 15:39 18.41878 78.58202 34871 ft 469 kts 342°
2026-04-25 15:39 18.48189 78.56628 34863 ft 470 kts 342°
2026-04-25 15:40 18.53481 78.55312 34862 ft 470 kts 342°
2026-04-25 15:40 18.60938 78.53461 34860 ft 471 kts 341°
2026-04-25 15:41 18.67321 78.51866 34862 ft 471 kts 341°
2026-04-25 15:41 18.73665 78.50284 34856 ft 472 kts 341°
2026-04-25 15:42 18.80060 78.48696 34861 ft 472 kts 341°
2026-04-25 15:42 18.86453 78.47110 34857 ft 472 kts 341°
2026-04-25 15:43 18.92839 78.45516 34855 ft 471 kts 341°
2026-04-25 15:43 18.99179 78.43932 34852 ft 471 kts 341°
2026-04-25 15:44 19.05553 78.42339 34846 ft 470 kts 340°
2026-04-25 15:44 19.11916 78.40740 34848 ft 470 kts 340°
2026-04-25 15:45 19.18281 78.39141 34852 ft 470 kts 340°
2026-04-25 15:45 19.23553 78.37767 34850 ft 469 kts 339°
2026-04-25 15:46 19.30904 78.35805 34857 ft 469 kts 339°
2026-04-25 15:46 19.37228 78.34130 34854 ft 469 kts 339°
2026-04-25 15:47 19.43560 78.32466 34855 ft 469 kts 339°
2026-04-25 15:47 19.49851 78.30806 34856 ft 469 kts 339°
2026-04-25 15:48 19.56178 78.29132 34860 ft 469 kts 339°
2026-04-25 15:48 19.62509 78.27457 34852 ft 469 kts 339°
2026-04-25 15:49 19.68842 78.25796 34854 ft 469 kts 339°
2026-04-25 15:49 19.75132 78.24152 34846 ft 468 kts 339°
2026-04-25 15:50 19.81464 78.22495 34847 ft 468 kts 339°
2026-04-25 15:50 19.87790 78.20833 34847 ft 469 kts 339°
2026-04-25 15:51 19.93058 78.19449 34848 ft 469 kts 339°
2026-04-25 15:51 20.00419 78.17516 34845 ft 469 kts 338°
2026-04-25 15:52 20.06748 78.15850 34848 ft 469 kts 338°
2026-04-25 15:52 20.13077 78.14184 34847 ft 469 kts 338°
2026-04-25 15:53 20.19404 78.12515 34851 ft 468 kts 338°
2026-04-25 15:53 20.25679 78.10855 34852 ft 467 kts 338°
2026-04-25 15:54 20.31988 78.09191 34849 ft 467 kts 338°
2026-04-25 15:54 20.38299 78.07521 34852 ft 467 kts 338°
2026-04-25 15:55 20.44604 78.05846 34851 ft 467 kts 338°
2026-04-25 15:55 20.50906 78.04179 34854 ft 467 kts 338°
2026-04-25 15:56 20.57167 78.02525 34857 ft 466 kts 338°
2026-04-25 15:56 20.63487 78.00936 34859 ft 467 kts 339°
2026-04-25 15:57 20.69826 77.99416 34863 ft 467 kts 339°
2026-04-25 15:57 20.76162 77.97894 34863 ft 466 kts 339°
2026-04-25 15:58 20.82435 77.96353 34862 ft 465 kts 339°
2026-04-25 15:58 20.88743 77.94800 34863 ft 465 kts 339°
2026-04-25 15:59 20.95042 77.93247 34867 ft 464 kts 339°
2026-04-25 15:59 21.01340 77.91692 34864 ft 464 kts 339°
2026-04-25 16:00 21.05502 77.90657 34867 ft 464 kts 339°
2026-04-25 16:00 21.13875 77.88588 34875 ft 464 kts 339°
2026-04-25 16:01 21.20165 77.87038 34884 ft 464 kts 339°
2026-04-25 16:01 21.26459 77.85491 34883 ft 464 kts 339°
2026-04-25 16:02 21.32703 77.83953 34892 ft 463 kts 339°
2026-04-25 16:02 21.38986 77.82395 34901 ft 463 kts 339°
2026-04-25 16:03 21.45268 77.80836 34911 ft 463 kts 339°
2026-04-25 16:03 21.51552 77.79276 34918 ft 463 kts 339°
2026-04-25 16:04 21.57788 77.77734 34921 ft 463 kts 339°
2026-04-25 16:04 21.64062 77.76179 34932 ft 462 kts 339°
2026-04-25 16:05 21.70325 77.74618 34929 ft 462 kts 338°
2026-04-25 16:06 21.79711 77.72279 34935 ft 461 kts 338°
2026-04-25 16:06 21.85917 77.70731 34936 ft 461 kts 338°
2026-04-25 16:07 21.92159 77.69176 34925 ft 460 kts 338°
2026-04-25 16:07 21.98390 77.67621 34929 ft 459 kts 338°
2026-04-25 16:08 22.04609 77.66069 34925 ft 458 kts 338°
2026-04-25 16:08 22.10771 77.64509 34912 ft 457 kts 338°
2026-04-25 16:09 22.16947 77.62899 34909 ft 456 kts 338°
2026-04-25 16:09 22.23116 77.61278 34904 ft 456 kts 338°
2026-04-25 16:10 22.29281 77.59663 34899 ft 456 kts 339°
2026-04-25 16:10 22.35397 77.58069 34894 ft 455 kts 339°
2026-04-25 16:11 22.41557 77.56467 34891 ft 455 kts 339°
2026-04-25 16:11 22.47708 77.54858 34883 ft 455 kts 340°
2026-04-25 16:12 22.53856 77.53250 34881 ft 454 kts 340°
2026-04-25 16:12 22.59957 77.51658 34874 ft 454 kts 341°
2026-04-25 16:13 22.66090 77.50053 34878 ft 453 kts 341°
2026-04-25 16:13 22.72219 77.48448 34874 ft 453 kts 342°
2026-04-25 16:14 22.78348 77.46836 34877 ft 453 kts 342°
2026-04-25 16:14 22.84438 77.45240 34880 ft 453 kts 342°
2026-04-25 16:15 22.90562 77.43627 34884 ft 453 kts 343°
2026-04-25 16:15 22.96684 77.42017 34886 ft 452 kts 343°
2026-04-25 16:16 23.02794 77.40411 34892 ft 452 kts 343°
2026-04-25 16:16 23.08894 77.38805 34892 ft 451 kts 344°
2026-04-25 16:17 23.14944 77.37210 34892 ft 450 kts 344°
2026-04-25 16:17 23.21019 77.35609 34892 ft 449 kts 344°
2026-04-25 16:18 23.27087 77.34013 34892 ft 448 kts 347°
2026-04-25 16:18 23.33264 77.33422 34889 ft 450 kts 356°
2026-04-25 16:19 23.39517 77.33143 34889 ft 449 kts 356°
2026-04-25 16:19 23.45749 77.32862 34884 ft 448 kts 356°
2026-04-25 16:20 23.55085 77.32432 34879 ft 447 kts 356°
2026-04-25 16:21 23.64348 77.31990 34877 ft 446 kts 356°
2026-04-25 16:21 23.70545 77.31695 34874 ft 445 kts 356°
2026-04-25 16:22 23.76730 77.31408 34872 ft 444 kts 356°
2026-04-25 16:22 23.82902 77.31121 34869 ft 444 kts 356°
2026-04-25 16:23 23.89032 77.30829 34866 ft 443 kts 356°
2026-04-25 16:23 23.95192 77.30535 34860 ft 443 kts 356°
2026-04-25 16:24 24.01349 77.30251 34858 ft 443 kts 356°
2026-04-25 16:24 24.07499 77.29968 34852 ft 442 kts 356°
2026-04-25 16:25 24.13594 77.29682 34854 ft 442 kts 356°
2026-04-25 16:25 24.19732 77.29388 34854 ft 442 kts 356°
2026-04-25 16:26 24.25882 77.29091 34852 ft 441 kts 356°
2026-04-25 16:26 24.31978 77.28802 34853 ft 441 kts 356°
2026-04-25 16:27 24.38113 77.28522 34854 ft 441 kts 356°
2026-04-25 16:27 24.44247 77.28233 34854 ft 441 kts 356°
2026-04-25 16:28 24.50380 77.27940 34857 ft 441 kts 355°
2026-04-25 16:28 24.56466 77.27651 34857 ft 440 kts 356°
2026-04-25 16:29 24.62582 77.27360 34859 ft 440 kts 355°
2026-04-25 16:29 24.68702 77.27062 34859 ft 440 kts 355°
2026-04-25 16:30 24.74817 77.26779 34863 ft 440 kts 356°
2026-04-25 16:30 24.80931 77.26524 34859 ft 440 kts 356°
2026-04-25 16:31 24.87002 77.26272 34859 ft 440 kts 356°
2026-04-25 16:31 24.93117 77.26019 34857 ft 440 kts 356°
2026-04-25 16:32 24.99224 77.25755 34859 ft 439 kts 356°
2026-04-25 16:32 25.05337 77.25509 34857 ft 439 kts 356°
2026-04-25 16:33 25.11405 77.25297 34862 ft 439 kts 356°
2026-04-25 16:33 25.17517 77.25094 34864 ft 439 kts 356°
2026-04-25 16:34 25.23630 77.24875 34869 ft 439 kts 356°
2026-04-25 16:34 25.29743 77.24643 34868 ft 439 kts 356°
2026-04-25 16:35 25.35808 77.24421 34868 ft 439 kts 356°
2026-04-25 16:35 25.41911 77.24209 34867 ft 439 kts 356°
2026-04-25 16:36 25.48007 77.23987 34861 ft 438 kts 356°
2026-04-25 16:36 25.54099 77.23755 34862 ft 438 kts 356°
2026-04-25 16:37 25.60183 77.23529 34857 ft 437 kts 356°
2026-04-25 16:37 25.66221 77.23311 34859 ft 437 kts 356°
2026-04-25 16:38 25.72300 77.23089 34860 ft 437 kts 356°
2026-04-25 16:38 25.78373 77.22867 34857 ft 437 kts 356°
2026-04-25 16:39 25.84406 77.22650 34855 ft 437 kts 356°
2026-04-25 16:39 25.90482 77.22436 34858 ft 437 kts 356°
2026-04-25 16:40 25.96554 77.22208 34857 ft 436 kts 356°
2026-04-25 16:40 26.02620 77.21973 34855 ft 436 kts 356°
2026-04-25 16:41 26.08649 77.21754 34856 ft 436 kts 356°
2026-04-25 16:41 26.17741 77.21417 34860 ft 436 kts 356°
2026-04-25 16:42 26.23792 77.21091 34856 ft 435 kts 355°
2026-04-25 16:42 26.29838 77.20759 34852 ft 435 kts 355°
2026-04-25 16:43 26.35840 77.20437 34852 ft 435 kts 355°
2026-04-25 16:43 26.41880 77.20131 34849 ft 434 kts 355°
2026-04-25 16:44 26.47915 77.19824 34848 ft 434 kts 355°
2026-04-25 16:44 26.53951 77.19512 34844 ft 434 kts 355°
2026-04-25 16:45 26.59943 77.19202 34840 ft 434 kts 355°
2026-04-25 16:45 26.65978 77.18890 34838 ft 434 kts 355°
2026-04-25 16:46 26.72010 77.18575 34834 ft 434 kts 355°
2026-04-25 16:46 26.75032 77.18417 34670 ft 435 kts 355°
2026-04-25 16:46 26.76012 77.18366 34380 ft 437 kts 356°
2026-04-25 16:47 26.81131 77.18100 33021 ft 439 kts 356°
2026-04-25 16:47 26.84154 77.17949 32542 ft 432 kts 356°
2026-04-25 16:47 26.87143 77.17796 31983 ft 429 kts 356°
2026-04-25 16:47 26.90113 77.17642 31417 ft 425 kts 356°
2026-04-25 16:48 26.93058 77.17492 30852 ft 422 kts 356°
2026-04-25 16:48 26.95983 77.17340 30297 ft 419 kts 356°
2026-04-25 16:48 26.98890 77.17191 29723 ft 417 kts 356°
2026-04-25 16:48 27.01771 77.17042 29149 ft 412 kts 356°
2026-04-25 16:49 27.04581 77.16896 28631 ft 407 kts 356°
2026-04-25 16:49 27.07397 77.16750 28111 ft 402 kts 355°
2026-04-25 16:49 27.10174 77.16603 27590 ft 397 kts 355°
2026-04-25 16:49 27.12918 77.16460 27081 ft 392 kts 355°
2026-04-25 16:50 27.15621 77.16320 26583 ft 387 kts 355°
2026-04-25 16:50 27.18295 77.16180 26094 ft 383 kts 355°
2026-04-25 16:50 27.20950 77.16040 25620 ft 381 kts 355°
2026-04-25 16:50 27.23588 77.15908 25146 ft 379 kts 355°
2026-04-25 16:51 27.26180 77.15776 24696 ft 377 kts 355°
2026-04-25 16:51 27.28797 77.15641 24239 ft 375 kts 355°
2026-04-25 16:51 27.31399 77.15504 23806 ft 374 kts 355°
2026-04-25 16:51 27.32277 77.15458 23654 ft 373 kts 355°
2026-04-25 16:52 27.36574 77.15235 22878 ft 370 kts 355°
2026-04-25 16:52 27.39139 77.15101 22449 ft 368 kts 355°
2026-04-25 16:52 27.41689 77.14968 22024 ft 365 kts 355°
2026-04-25 16:52 27.44220 77.14836 21607 ft 363 kts 355°
2026-04-25 16:53 27.49189 77.14575 20731 ft 357 kts 356°
2026-04-25 16:53 27.51664 77.14449 20289 ft 355 kts 356°
2026-04-25 16:53 27.54121 77.14321 19836 ft 352 kts 356°
2026-04-25 16:54 27.56560 77.14193 19382 ft 350 kts 356°
2026-04-25 16:54 27.58979 77.14066 19020 ft 344 kts 356°
2026-04-25 16:54 27.61349 77.13941 18695 ft 338 kts 356°
2026-04-25 16:54 27.63680 77.13819 18475 ft 334 kts 356°
2026-04-25 16:55 27.65992 77.13966 18254 ft 334 kts
2026-04-25 16:55 27.68250 77.14401 17969 ft 333 kts
2026-04-25 16:55 27.70525 77.14840 17473 ft 331 kts
2026-04-25 16:55 27.72789 77.15276 16985 ft 329 kts
2026-04-25 16:56 27.75045 77.15709 16493 ft 328 kts
2026-04-25 16:56 27.77291 77.16137 16019 ft 326 kts
2026-04-25 16:56 27.79520 77.16562 15564 ft 325 kts
2026-04-25 16:56 27.81735 77.16984 15171 ft 321 kts
2026-04-25 16:57 27.83943 77.17405 14722 ft 320 kts
2026-04-25 16:57 27.84653 77.17541 14610 ft 318 kts
2026-04-25 16:57 27.88269 77.18231 13903 ft 316 kts
2026-04-25 16:57 27.90431 77.18643 13486 ft 314 kts
2026-04-25 16:58 27.92580 77.19058 13023 ft 313 kts
2026-04-25 16:58 27.94719 77.19470 12578 ft 311 kts
2026-04-25 16:58 27.96827 77.19874 12349 ft 302 kts
2026-04-25 16:58 27.98855 77.20263 12210 ft 290 kts
2026-04-25 16:59 28.00828 77.20640 11899 ft 286 kts
2026-04-25 16:59 28.02754 77.21012 11547 ft 283 kts
2026-04-25 16:59 28.04691 77.21390 11157 ft 282 kts
2026-04-25 16:59 28.06615 77.21766 10831 ft 279 kts
2026-04-25 17:00 28.08513 77.22135 10535 ft 275 kts
2026-04-25 17:00 28.10395 77.22501 10239 ft 273 kts
2026-04-25 17:00 28.12261 77.22864 9957 ft 272 kts
2026-04-25 17:00 28.14117 77.23226 9664 ft 270 kts
2026-04-25 17:01 28.15967 77.23585 9349 ft 269 kts
2026-04-25 17:01 28.17783 77.23936 9069 ft 268 kts
2026-04-25 17:01 28.19613 77.24291 8796 ft 266 kts
2026-04-25 17:01 28.21440 77.24647 8387 ft 267 kts
2026-04-25 17:02 28.23265 77.25003 7969 ft 266 kts
2026-04-25 17:02 28.25092 77.25362 7579 ft 265 kts
2026-04-25 17:02 28.26904 77.25718 7192 ft 264 kts
2026-04-25 17:02 28.28704 77.26070 6808 ft 263 kts
2026-04-25 17:03 28.30495 77.26419 6505 ft 259 kts
2026-04-25 17:03 28.32243 77.26761 6126 ft 258 kts
2026-04-25 17:03 28.33973 77.27100 6016 ft 246 kts
2026-04-25 17:03 28.35604 77.27419 5937 ft 230 kts
2026-04-25 17:04 28.37130 77.27718 5817 ft 216 kts
2026-04-25 17:04 28.38489 77.28357 5720 ft 214 kts 37°
2026-04-25 17:04 28.39339 77.29735 5631 ft 218 kts 71°
2026-04-25 17:04 28.39371 77.31453 5594 ft 223 kts 102°
2026-04-25 17:05 28.38936 77.33153 5541 ft 224 kts 104°
2026-04-25 17:05 28.38060 77.36516 5234 ft 222 kts 104°
2026-04-25 17:05 28.37729 77.38216 4938 ft 218 kts 88°
2026-04-25 17:06 28.38026 77.39864 4889 ft 214 kts 61°
2026-04-25 17:06 28.38946 77.41155 4853 ft 210 kts 33°
2026-04-25 17:06 28.40263 77.41801 4804 ft 206 kts
2026-04-25 17:06 28.41668 77.41690 4768 ft 203 kts 340°
2026-04-25 17:07 28.42870 77.40885 4733 ft 202 kts 316°
2026-04-25 17:07 28.43730 77.39648 4694 ft 203 kts 307°
2026-04-25 17:07 28.44562 77.38355 4653 ft 203 kts 307°
2026-04-25 17:07 28.45396 77.37065 4617 ft 203 kts 307°
2026-04-25 17:08 28.46228 77.35777 4577 ft 202 kts 307°
2026-04-25 17:08 28.47060 77.34491 4542 ft 202 kts 307°
2026-04-25 17:08 28.47889 77.33203 4499 ft 202 kts 307°
2026-04-25 17:08 28.48719 77.31913 4457 ft 202 kts 307°
2026-04-25 17:09 28.49486 77.30574 4292 ft 205 kts 293°
2026-04-25 17:09 28.49880 77.29029 4030 ft 201 kts 286°
2026-04-25 17:09 28.50198 77.27539 3780 ft 193 kts 286°
2026-04-25 17:09 28.50510 77.26084 3543 ft 186 kts 287°
2026-04-25 17:10 28.50813 77.24679 3324 ft 180 kts 287°
2026-04-25 17:10 28.51107 77.23316 3103 ft 175 kts 287°
2026-04-25 17:10 28.51393 77.21992 2891 ft 170 kts 287°
2026-04-25 17:10 28.51673 77.20694 2687 ft 168 kts 287°
2026-04-25 17:11 28.51948 77.19422 2470 ft 163 kts 287°
2026-04-25 17:11 28.52206 77.18219 2300 ft 156 kts 288°
2026-04-25 17:11 28.52456 77.17061 2101 ft 147 kts 288°
2026-04-25 17:11 28.52694 77.15956 1919 ft 142 kts 287°
2026-04-25 17:12 28.52927 77.14874 1742 ft 140 kts 287°
2026-04-25 17:12 28.53158 77.13803 1571 ft 140 kts 287°
2026-04-25 17:12 28.53390 77.12725 1385 ft 141 kts 285°
2026-04-25 17:12 28.53624 77.11637 1197 ft 142 kts 284°
2026-04-25 17:13 28.53858 77.10551 1001 ft 142 kts 284°
2026-04-25 17:13 28.53934 77.10199 939 ft 142 kts 284°
2026-04-25 17:13 28.54310 77.08445 750 ft 118 kts 283°
2026-04-25 17:13 28.54465 77.07725 745 ft 69 kts 284°
2026-04-25 17:14 28.54546 77.07389 749 ft 19 kts 292°
2026-04-25 17:14 28.54575 77.07316 747 ft 13 kts 295°
2026-04-25 17:14 28.54640 77.07202 748 ft 19 kts 311°
2026-04-25 17:14 28.54732 77.07096 749 ft 19 kts 314°
2026-04-25 17:15 28.54804 77.06981 749 ft 18 kts 286°
2026-04-25 17:15 28.54807 77.06966 751 ft 0 kts 284°
2026-04-25 17:25 28.54817 77.06926 748 ft 6 kts 289°
2026-04-25 17:25 28.54844 77.06891 748 ft 6 kts 338°
2026-04-25 17:25 28.54880 77.06894 750 ft 5 kts 11°
2026-04-25 17:26 28.54883 77.06895 747 ft 0 kts 12°
2026-04-25 17:26 28.54897 77.06898 748 ft 6 kts 12°
2026-04-25 17:27 28.54964 77.06915 746 ft 13 kts 13°
2026-04-25 17:27 28.55054 77.06939 749 ft 14 kts 13°
2026-04-25 17:27 28.55143 77.06963 750 ft 12 kts 14°
2026-04-25 17:27 28.55156 77.06967 750 ft 0 kts 15°
2026-04-25 17:29 28.55159 77.06968 750 ft 2 kts 15°
2026-04-25 17:29 28.55175 77.06973 746 ft 3 kts 16°
2026-04-25 17:29 28.55194 77.06984 750 ft 3 kts 34°
2026-04-25 17:29 28.55206 77.07008 748 ft 4 kts 72°
2026-04-25 17:30 28.55205 77.07041 751 ft 5 kts 97°
2026-04-25 17:30 28.55198 77.07079 748 ft 5 kts 103°
2026-04-25 17:30 28.55188 77.07125 750 ft 6 kts 103°
2026-04-25 17:30 28.55178 77.07171 750 ft 6 kts 104°
2026-04-25 17:31 28.55169 77.07210 750 ft 5 kts 104°
2026-04-25 17:31 28.55161 77.07243 751 ft 6 kts 104°
2026-04-25 17:31 28.55142 77.07328 747 ft 16 kts 104°
2026-04-25 17:31 28.55115 77.07445 749 ft 15 kts 105°
2026-04-25 17:32 28.55091 77.07559 752 ft 14 kts 94°
2026-04-25 17:32 28.55153 77.07625 750 ft 13 kts 13°
2026-04-25 17:32 28.55244 77.07650 750 ft 14 kts 13°
2026-04-25 17:32 28.55335 77.07675 748 ft 13 kts 13°
2026-04-25 17:33 28.55425 77.07701 750 ft 13 kts 14°
2026-04-25 17:33 28.55515 77.07727 749 ft 13 kts 14°
2026-04-25 17:33 28.55605 77.07752 751 ft 13 kts 14°
2026-04-25 17:33 28.55694 77.07778 748 ft 13 kts 14°
2026-04-25 17:34 28.55782 77.07803 749 ft 13 kts 14°
2026-04-25 17:34 28.55870 77.07828 749 ft 13 kts 14°
2026-04-25 17:34 28.55962 77.07854 749 ft 14 kts 14°
2026-04-25 17:34 28.56055 77.07880 749 ft 14 kts 14°
2026-04-25 17:35 28.56147 77.07906 747 ft 14 kts 14°
2026-04-25 17:35 28.56237 77.07932 747 ft 13 kts 14°
2026-04-25 17:35 28.56327 77.07961 746 ft 13 kts 19°
2026-04-25 17:35 28.56359 77.08041 750 ft 12 kts 101°
2026-04-25 17:36 28.56338 77.08129 747 ft 11 kts 105°
2026-04-25 17:36 28.56317 77.08214 750 ft 11 kts 105°
2026-04-25 17:36 28.56298 77.08293 750 ft 10 kts 105°
2026-04-25 17:36 28.56281 77.08368 750 ft 9 kts 103°
2026-04-25 17:37 28.56266 77.08438 750 ft 9 kts 104°
2026-04-25 17:37 28.56251 77.08502 747 ft 8 kts 105°
2026-04-25 17:37 28.56238 77.08560 750 ft 7 kts 105°
2026-04-25 17:37 28.56225 77.08612 750 ft 6 kts 105°
2026-04-25 17:38 28.56214 77.08659 749 ft 6 kts 105°
2026-04-25 17:38 28.56211 77.08674 750 ft 6 kts 105°
2026-04-25 17:38 28.56181 77.08793 750 ft 15 kts 106°
2026-04-25 17:38 28.56149 77.08925 749 ft 15 kts 105°
2026-04-25 17:39 28.56082 77.08985 747 ft 13 kts 184°
2026-04-25 17:39 28.55998 77.08971 748 ft 5 kts 188°
2026-04-25 17:39 28.55995 77.08971 747 ft 2 kts 188°
2026-04-25 17:39 28.55974 77.08967 747 ft 3 kts 189°
2026-04-25 17:40 28.55962 77.08956 750 ft 1 kts 237°
2026-04-25 17:40 28.55960 77.08948 750 ft 1 kts 253°
2026-04-25 17:40 28.55960 77.08942 747 ft 1 kts 261°
2026-04-25 17:40 28.55960 77.08927 749 ft 2 kts 272°
2026-04-25 17:41 28.55960 77.08922 750 ft 0 kts 277°
2026-04-25 17:41 28.55960 77.08920 750 ft 1 kts 278°
2026-04-25 17:41 28.55961 77.08915 750 ft 1 kts 279°
2026-04-25 17:41 28.55962 77.08913 750 ft 0 kts 279°